Location: Bullseye
(38.5918°N, 75.2232°W)
Time: 22:38:24
(UTC+00:00)

Daily predictions for brighter satellites

Satellite Brightness Start Highest point End
(mag) Time Altitude Azimuth Time Altitude Azimuth Time Altitude Azimuth
USA 234 3.3 23:07:38 10° NE 23:14:12 76° SE 23:20:45 10° SW
H-2A R/B 3.6 23:10:34 10° N 23:14:22 37° WNW 23:18:08 10° SW
Cosmos 2263 Rocket 3.6 23:11:03 10° NNE 23:14:41 17° NE 23:18:18 10° E
Meteor 1-10 Rocket 4.3 23:09:33 10° N 23:15:15 63° E 23:20:47 10° SSE
Cosmos 1689 Rocket 3.1 23:13:55 10° NE 23:16:19 24° E 23:18:42 10° SSE
Abrixas rocket 3.8 23:17:39 10° SSE 23:18:53 13° SE 23:20:07 10° ESE
CZ-2D R/B 3.2 23:15:13 10° SSE 23:19:00 85° E 23:22:48 10° N
Cosmos 2228 Rocket 3.3 23:18:36 10° N 23:23:01 51° E 23:27:21 10° SSE
Cosmos 2227 Rocket 2.7 23:17:41 10° NNW 23:23:19 68° WSW 23:28:55 10° S
Cosmos 1812 2.7 23:20:31 10° N 23:24:21 87° W 23:28:11 10° S
BREEZE-M DEB (TANK) 3.6 23:23:16 10° WNW 23:24:50 17° NNW 23:26:41 10° NNE
Cosmos 1850 Rocket 4.0 23:20:06 10° NNW 23:25:15 62° ENE 23:30:23 10° SSE
H-2A R/B 2.3 23:21:03 10° SSE 23:26:15 53° ENE 23:31:33 10° N
CZ-4 R/B 4.4 23:23:56 10° SSE 23:28:06 86° ENE 23:32:16 10° N
Cosmos 2084 3.8 23:25:04 10° SW 23:29:13 68° NW 23:33:30 10° NNE
ARGOS 3.6 23:24:50 10° SE 23:29:48 39° ENE 23:34:48 10° N
FALCON 9 DEB 3.8 23:26:57 10° WSW 23:30:03 47° NW 23:33:10 10° NE
Cosmos 1666 Rocket 4.5 23:27:44 10° SE 23:31:20 26° E 23:34:55 10° NNE
Cosmos 1242 Rocket 2.8 23:29:08 10° NNW 23:32:40 72° W 23:36:14 10° S
Cosmos 2278 3.7 23:28:27 10° SSW 23:34:06 76° ESE 23:39:48 10° NNE
Meteor 1-27 Rocket 3.7 23:29:30 10° N 23:34:56 55° ENE 23:40:20 10° SSE
Cosmos 2184 Rocket 4.3 23:31:27 10° SSE 23:37:07 40° E 23:42:48 10° NNE
FALCON 9 DEB 4.5 23:35:22 10° W 23:38:15 32° NW 23:41:09 10° NNE
Aureole 1 Rocket 4.0 23:32:59 10° NNW 23:40:15 88° WSW 23:45:45 10° SSE
Cosmos 2297 Rocket 3.9 23:35:33 10° NW 23:40:40 36° WSW 23:45:46 10° S
Cosmos 292 Rocket 4.4 23:37:37 10° SSW 23:42:17 60° WNW 23:47:00 10° N
COSMOS 2455 3.2 23:37:06 10° NNW 23:42:52 46° NE 23:48:36 10° SE
CSL-04 Debris 4.4 23:38:33 10° SE 23:43:40 45° ENE 23:48:50 10° N
Helios 1A Rocket 3.3 23:40:07 10° SE 23:43:57 40° ENE 23:47:46 10° N
Cosmos 1331 Rocket 4.0 23:38:50 10° SSW 23:44:07 83° ESE 23:49:24 10° NNE
CZ-2C R/B 4.0 23:38:30 10° S 23:44:14 59° W 23:49:53 10° NNW
CZ-2C R/B 2.9 23:39:52 10° NNE 23:45:11 46° E 23:50:20 10° S
YAOGAN 1 2.5 23:41:50 10° SSE 23:46:08 76° ENE 23:50:28 10° N
SL-4 R/B 3.8 23:44:04 10° WNW 23:46:46 20° NNW 23:49:23 10° NNE
Cosmos 220 Rocket 4.0 23:44:20 10° SSW 23:48:31 79° WNW 23:52:46 10° NNE
Okean-O 2.5 23:44:20 10° SSE 23:48:44 77° ENE 23:53:11 10° N
COSMO-SKYMED 1 4.5 23:46:18 10° N 23:50:11 33° WNW 23:54:03 10° SW
CSL-04 Rocket 3.9 23:45:26 10° SE 23:50:45 49° ENE 23:56:06 10° N
CZ-4B R/B 3.9 23:49:15 10° NNW 23:51:38 21° WNW 23:54:01 10° WSW
Gbstr 26 Del rocket 3.5 23:48:06 10° WSW 23:52:18 63° NW 23:57:10 11° NE
Lacrosse 5 rocket 1.4 23:50:38 10° NW 23:55:01 67° NE 23:58:02 18° SE
Cosmos 1437 3.0 23:53:18 10° N 23:55:59 35° ENE 23:56:40 30° ESE
